Regional Weather Roundup
Issued by NWS Goodland, KS

Home | Current Version | Previous Version | Graphics & Text | Print | Product List | Glossary On
Versions: 1 2 3 4 5 6 7 8 9 10 11 12 13 14 15 16 17 18 19 20 21 22 23 24 25 26 27 28 29 30 31 32 33 34 35 36 37 38 39 40 41 42 43 44 45 46 47 48 49 50
000
ASUS43 KGLD 182308
RWRGLD

GOODLAND FORECAST AREA HOURLY WEATHER ROUNDUP
NATIONAL WEATHER SERVICE GOODLAND KS
400 PM MST THU DEC 18 2014

...OFFICIAL OBSERVATIONS...

CITY           SKY/WX    TMP DP  RH WIND       PRES   REMARKS
GOODLAND KS    CLEAR     38  30  73 N6        30.07R
HILL CITY KS   CLOUDY    32  27  81 NW5       30.14R
IMPERIAL NEB   MOCLDY    28  25  88 CALM      30.07S
MCCOOK NEB     CLOUDY    29  26  89 CALM      30.10S
AKRON CO       MOCLDY    36  26  67 CALM      30.03S
BURLINGTON CO  CLEAR     41  24  51 CALM      30.06R
LIMON CO       CLEAR     40  21  46 S8        30.02R
$$

...UNOFFICIAL OBSERVATIONS...

CITY           SKY/WX    TMP DP  RH WIND       PRES   REMARKS
COLBY KS       CLEAR     32  32 100 CALM      30.09R
GOVE KS          N/A     34  32  92 MISG        N/A
NORTON KS      CLOUDY    30  25  80 SW5       30.12S
SHARON SPRINGS   N/A     45  33  64 CALM        N/A
TRIBUNE KS     CLEAR     41  36  81 S5        30.08R
KIT CARSON CO    N/A     32  29  88 MISG        N/A
YUMA CO          N/A     34  33  96 CALM        N/A
$$



USA.gov is the U.S. government's official web portal to all federal, state and local government web resources and services.